Regional Weather Roundup
Issued by NWS

Home | Current Version | Previous Version | Text Only | Print | Product List | Glossary On
Versions: 1 2 3 4 5 6 7 8 9 10 11 12 13 14 15 16 17 18 19 20 21 22 23 24 25 26 27 28 29 30 31 32 33 34 35 36 37 38 39 40 41 42 43 44 45 46 47 48 49 50
000
ASUS43 KTOP 010759
RWRKS

WEATHER ROUNDUP FOR KANSAS
NATIONAL WEATHER SERVICE GOODLAND KS
300 AM CDT SUN MAY 01 2016

NOTE:  "FAIR" INDICATES FEW OR NO CLOUDS BELOW 12,000 FEET WITH NO
SIGNIFICANT WEATHER AND/OR OBSTRUCTIONS TO VISIBILITY.

KSZ001>006-013>018-027>032-041>047-010900-
NORTHWEST KANSAS

CITY           SKY/WX    TMP DP  RH WIND       PRES   REMARKS
GOODLAND       CLOUDY    35  33  92 N25G32    30.05R WCI  23
HAYS           CLOUDY    43  30  61 NW16      29.97S
HILL CITY      CLOUDY    40  38  93 NW13      29.98R WCI  32
RUSSELL        CLOUDY    43  38  82 NW13      29.95S
$$

KSZ061>065-074>080-084>089-010900-
SOUTHWEST KANSAS

CITY           SKY/WX    TMP DP  RH WIND       PRES   REMARKS
DODGE CITY     CLOUDY    39  32  76 NW18      30.01S WCI  30
ELKHART          N/A     39  29  67 NW14        N/A  WCI  31
GARDEN CITY    CLOUDY    39  33  79 NW23G29   30.02F WCI  28
GREAT BEND     CLOUDY    43  34  70 W14       29.97S
LIBERAL        PTCLDY    39  30  70 NW14G21   30.03F WCI  31
$$

KSZ066>073-081>083-090>101-010900-
SOUTHEAST KANSAS

CITY           SKY/WX    TMP DP  RH WIND       PRES   REMARKS
CHANUTE        CLEAR     46  41  82 W3        29.92F
COFFEYVILLE    CLEAR     48  45  89 CALM      29.94S
HUTCHINSON     MOCLDY    44  39  82 NW9       29.96R
MEDICINE LODGE   N/A     41  37  86 W7        29.98F
NEWTON         MOCLDY    45  37  76 W9        29.96R
PARSONS        CLEAR     45  44  97 CALM      29.94S
WICHITA INTL   CLEAR     46  40  79 NW13      29.95S
WICHITA JABRA  PTCLDY    45  41  86 W9        29.95R
$$

KSZ007>012-019>026-033>040-048>060-102>105-010900-
NORTHEAST KANSAS

CITY           SKY/WX    TMP DP  RH WIND       PRES   REMARKS
CONCORDIA      CLOUDY    46  42  86 W8        29.91S
EMPORIA        CLEAR     47  42  83 W3        29.92S
LAWRENCE       CLEAR     49  45  86 W6        29.89F
MANHATTAN      CLOUDY    51  44  77 SW5       29.91S
OLATHE IND     MOCLDY    51  46  83 W5        29.90S
OLATHE EXE     MOCLDY    51  46  83 W5        29.89S
SALINA         MOCLDY    46  42  86 W12       29.94S
TOPEKA BILLARD PTCLDY    50  45  83 SW5       29.90S
TOPEKA FORBES  PTCLDY    49  45  86 SW8       29.89F
$$




USA.gov is the U.S. government's official web portal to all federal, state and local government web resources and services.